TimePST,TemperatureF,Dew PointF,Humidity,Sea Level PressureIn,VisibilityMPH,Wind Direction,Wind SpeedMPH,Gust SpeedMPH,PrecipitationIn,Events,Conditions,WindDirDegrees,DateUTC
12:31 AM,30.2,28.4,93,29.94,7.0,Calm,Calm,-,N/A,,Overcast,0,2012-12-27 08:31:00
12:55 AM,30.9,28.0,89,29.98,8.0,Calm,Calm,-,N/A,,Overcast,0,2012-12-27 08:55:00
1:55 AM,30.9,28.0,89,30.00,9.0,Calm,Calm,-,N/A,,Overcast,0,2012-12-27 09:55:00
2:55 AM,30.0,27.0,88,30.01,6.0,West,3.5,-,N/A,,Overcast,280,2012-12-27 10:55:00
3:03 AM,30.2,26.6,86,29.97,5.0,Calm,Calm,-,0.00,Snow,Light Snow,0,2012-12-27 11:03:00
3:45 AM,30.2,28.4,93,29.98,2.0,Calm,Calm,-,0.00,Snow,Light Snow,0,2012-12-27 11:45:00
3:55 AM,30.9,28.0,89,30.02,2.5,Calm,Calm,-,0.00,Snow,Light Snow,0,2012-12-27 11:55:00
4:37 AM,30.2,28.4,93,29.98,2.5,Calm,Calm,-,0.00,Snow,Light Snow,0,2012-12-27 12:37:00
4:55 AM,30.0,28.0,92,30.02,2.0,Calm,Calm,-,0.00,Snow,Light Snow,0,2012-12-27 12:55:00
5:26 AM,30.2,28.4,93,29.99,3.0,Calm,Calm,-,0.00,,Overcast,0,2012-12-27 13:26:00
5:36 AM,30.2,28.4,93,29.99,2.5,Calm,Calm,-,0.00,,Overcast,0,2012-12-27 13:36:00
5:51 AM,28.4,26.6,93,29.99,1.0,Calm,Calm,-,0.00,,Overcast,0,2012-12-27 13:51:00
5:55 AM,28.9,27.0,92,30.04,0.8,Calm,Calm,-,0.00,,Overcast,0,2012-12-27 13:55:00
6:03 AM,28.4,26.6,93,30.00,0.5,Calm,Calm,-,N/A,Fog,Light Freezing Fog,0,2012-12-27 14:03:00
6:13 AM,28.4,26.6,93,30.00,2.0,Calm,Calm,-,N/A,,Overcast,0,2012-12-27 14:13:00
6:21 AM,30.2,28.4,93,30.00,4.0,Calm,Calm,-,N/A,,Overcast,0,2012-12-27 14:21:00
6:51 AM,28.4,26.6,93,30.01,1.8,Calm,Calm,-,N/A,,Overcast,0,2012-12-27 14:51:00
6:55 AM,28.9,27.0,92,30.05,0.5,Calm,Calm,-,N/A,Fog,Light Freezing Fog,0,2012-12-27 14:55:00
7:05 AM,28.4,26.6,93,30.01,0.2,Calm,Calm,-,N/A,Fog,Light Freezing Fog,0,2012-12-27 15:05:00
7:55 AM,28.9,27.0,92,30.06,0.2,Calm,Calm,-,N/A,Fog,Light Freezing Fog,0,2012-12-27 15:55:00
8:07 AM,30.2,28.4,93,30.02,0.5,Calm,Calm,-,N/A,Fog,Light Freezing Fog,0,2012-12-27 16:07:00
8:15 AM,30.2,28.4,93,30.03,1.0,Calm,Calm,-,N/A,,Overcast,0,2012-12-27 16:15:00
8:23 AM,30.2,28.4,93,30.03,0.8,Calm,Calm,-,N/A,,Overcast,0,2012-12-27 16:23:00
8:28 AM,30.2,28.4,93,30.03,1.0,Calm,Calm,-,N/A,,Overcast,0,2012-12-27 16:28:00
8:45 AM,30.2,28.4,93,30.04,0.8,Calm,Calm,-,N/A,,Overcast,0,2012-12-27 16:45:00
8:55 AM,30.0,27.0,88,30.08,2.0,Calm,Calm,-,N/A,,Overcast,0,2012-12-27 16:55:00
9:03 AM,30.2,28.4,93,30.05,5.0,Calm,Calm,-,N/A,,Overcast,0,2012-12-27 17:03:00
9:15 AM,30.2,28.4,93,30.05,7.0,Calm,Calm,-,N/A,,Overcast,0,2012-12-27 17:15:00
9:55 AM,30.0,28.0,92,30.11,5.0,Calm,Calm,-,N/A,,Overcast,0,2012-12-27 17:55:00
10:26 AM,30.2,28.4,93,30.07,8.0,Calm,Calm,-,N/A,,Overcast,0,2012-12-27 18:26:00
10:55 AM,32.0,30.0,92,30.11,6.0,Calm,Calm,-,N/A,,Overcast,0,2012-12-27 18:55:00
11:55 AM,33.1,28.9,85,30.10,7.0,Calm,Calm,-,N/A,,Overcast,0,2012-12-27 19:55:00
12:55 PM,33.1,28.9,85,30.09,10.0,Calm,Calm,-,N/A,,Overcast,0,2012-12-27 20:55:00
1:55 PM,33.1,28.9,85,30.10,10.0,Calm,Calm,-,N/A,,Overcast,0,2012-12-27 21:55:00
2:55 PM,34.0,27.0,75,30.12,10.0,Calm,Calm,-,N/A,,Overcast,0,2012-12-27 22:55:00
3:55 PM,32.0,27.0,82,30.12,10.0,SE,4.6,-,N/A,,Overcast,130,2012-12-27 23:55:00
4:55 PM,32.0,27.0,82,30.13,10.0,SE,4.6,-,N/A,,Overcast,140,2012-12-28 00:55:00
5:55 PM,32.0,27.0,82,30.14,10.0,Calm,Calm,-,N/A,,Overcast,0,2012-12-28 01:55:00
6:55 PM,30.9,27.0,85,30.15,10.0,Calm,Calm,-,N/A,,Overcast,0,2012-12-28 02:55:00
7:55 PM,30.9,27.0,85,30.16,10.0,WSW,4.6,-,N/A,,Overcast,250,2012-12-28 03:55:00
8:55 PM,30.0,26.1,85,30.16,10.0,WSW,3.5,-,N/A,,Overcast,250,2012-12-28 04:55:00
9:55 PM,30.0,26.1,85,30.18,10.0,WSW,4.6,-,N/A,,Overcast,250,2012-12-28 05:55:00
10:55 PM,30.0,26.1,85,30.20,10.0,West,3.5,-,N/A,,Overcast,270,2012-12-28 06:55:00
11:55 PM,30.0,26.1,85,30.20,10.0,WNW,3.5,-,N/A,,Overcast,300,2012-12-28 07:55:00